Date String (YYYY-MM-DD hh:mm:ss) UTC,Instrument flags,Ambient pressure (hPa),Sample flow (lpm),Bypass flow (lpm),Sample temperature (°C),Ambient temperature (°C),ASC tube jacket temperature (°C),LED temperature (°C),Box temperature (°C),Sample RH (%),Span deviation,Mass concentration (μg/m³),Mass concentration (μg/m³),Mass concentration (μg/m³)
DateTimeUTC,F1_M11,P_M11,Q1_M11,Q2_M11,T1_M11,T2_M11,T3_M11,T4_M11,T5_M11,U1_M11,ZSPAN_M11,X0_M11,X2_M11,X1_M11
2022-11-24 10:00:00,,0830.6,5.01,0.00,22.1,20.9,00.0,31.1,24.0,14.0,0000.0,0003.60,0001.75,0001.51
2022-11-24 10:01:00,,0830.6,5.01,0.00,22.1,20.9,00.0,31.1,24.0,14.0,0000.0,0003.65,0001.77,0001.51
2022-11-24 10:02:00,,0830.6,4.99,0.00,22.1,20.9,00.0,31.1,24.0,14.0,0000.0,0003.71,0001.82,0001.52
2022-11-24 10:03:00,,0830.6,4.99,0.00,22.1,20.8,00.0,31.1,24.0,14.0,0000.0,0003.60,0001.83,0001.53
2022-11-24 10:04:00,,0830.6,5.00,0.00,22.1,20.7,00.0,31.1,24.0,14.0,0000.0,0003.31,0001.82,0001.54
2022-11-24 10:05:00,,0830.6,5.01,0.00,22.1,20.7,00.0,31.1,24.0,14.0,0000.0,0002.54,0001.81,0001.52
2022-11-24 10:06:00,,0830.6,5.00,0.00,22.1,20.7,00.0,31.0,24.0,14.0,0000.0,0002.65,0001.84,0001.54
2022-11-24 10:07:00,,0830.6,5.00,0.00,22.1,20.6,00.0,31.0,23.9,14.1,0000.0,0002.75,0001.89,0001.55
2022-11-24 10:08:00,,0830.6,4.99,0.00,22.0,20.6,00.0,31.0,23.9,14.1,0000.0,0002.78,0001.91,0001.57
2022-11-24 10:09:00,,0830.6,4.99,0.00,22.0,20.5,00.0,31.0,23.9,14.2,0000.0,0002.68,0001.89,0001.59
2022-11-24 10:10:00,,0830.6,5.00,0.00,22.0,20.5,00.0,31.0,23.9,14.2,0000.0,0002.58,0001.85,0001.59
2022-11-24 10:11:00,,0830.6,5.01,0.00,22.0,20.8,00.0,31.0,23.9,14.2,0000.0,0002.57,0001.85,0001.60
2022-11-24 10:12:00,,0830.7,5.01,0.00,22.1,21.7,00.0,30.9,24.1,14.2,0000.0,0002.60,0001.88,0001.63
2022-11-24 10:13:00,,0830.8,5.00,0.00,22.2,22.0,00.0,31.0,24.2,14.1,0000.0,0002.54,0001.85,0001.64
2022-11-24 10:14:00,,0830.8,5.00,0.00,22.2,21.7,00.0,31.0,24.2,14.1,0000.0,0002.57,0001.87,0001.66
2022-11-24 10:15:00,,0830.8,4.99,0.00,22.2,21.5,00.0,31.0,24.2,14.1,0000.0,0002.63,0001.91,0001.68
2022-11-24 10:16:00,,0830.8,4.99,0.00,22.2,21.3,00.0,31.1,24.2,14.1,0000.0,0002.69,0001.94,0001.71
2022-11-24 10:17:00,,0830.8,5.01,0.00,22.2,21.2,00.0,31.1,24.1,14.1,0000.0,0002.61,0001.91,0001.71
2022-11-24 10:18:00,,0830.9,5.01,0.00,22.2,21.1,00.0,31.1,24.1,14.1,0000.0,0002.85,0001.90,0001.71
2022-11-24 10:19:00,,0830.9,4.99,0.00,22.2,21.0,00.0,31.1,24.1,14.1,0000.0,0002.92,0001.91,0001.71
2022-11-24 10:20:00,,0830.9,5.00,0.00,22.2,20.9,00.0,31.1,24.1,14.1,0000.0,0002.94,0001.91,0001.69
2022-11-24 10:21:00,,0830.9,5.00,0.00,22.2,20.7,00.0,31.1,24.1,14.1,0000.0,0003.02,0001.93,0001.69
2022-11-24 10:22:00,,0830.9,5.00,0.00,22.2,20.6,00.0,31.1,24.0,14.1,0000.0,0003.01,0001.92,0001.67
2022-11-24 10:23:00,,0831.0,5.00,0.00,22.1,20.5,00.0,31.1,24.0,14.2,0000.0,0002.93,0001.87,0001.65
2022-11-24 10:24:00,,0831.0,5.00,0.00,22.1,20.5,00.0,31.1,23.9,14.2,0000.0,0003.01,0001.88,0001.64
2022-11-24 10:25:00,,0831.0,5.00,0.00,22.1,20.4,00.0,31.1,23.9,14.3,0000.0,0003.02,0001.87,0001.64
2022-11-24 10:26:00,,0831.0,5.00,0.00,22.1,20.3,00.0,31.1,23.9,14.4,0000.0,0002.99,0001.86,0001.65
2022-11-24 10:27:00,,0831.0,5.00,0.00,22.0,20.3,00.0,31.0,23.8,14.5,0000.0,0003.01,0001.86,0001.66
2022-11-24 10:28:00,,0831.0,5.02,0.00,22.0,20.2,00.0,31.0,23.8,14.6,0000.0,0003.10,0001.92,0001.69
2022-11-24 10:29:00,,0831.0,5.01,0.00,22.0,20.1,00.0,31.0,23.7,14.7,0000.0,0002.88,0001.95,0001.73
2022-11-24 10:30:00,,0831.1,4.99,0.00,21.9,20.1,00.0,31.0,23.7,14.8,0000.0,0002.81,0001.97,0001.78
2022-11-24 10:31:00,,0831.1,5.00,0.00,21.9,20.0,00.0,31.0,23.6,15.0,0000.0,0002.85,0002.00,0001.82
2022-11-24 10:32:00,,0831.1,4.99,0.00,21.8,20.0,00.0,30.9,23.6,15.0,0000.0,0003.06,0002.05,0001.85
2022-11-24 10:33:00,,0831.1,4.99,0.00,21.8,19.9,00.0,30.9,23.5,15.0,0000.0,0003.27,0002.15,0001.90
2022-11-24 10:34:00,,0831.1,5.00,0.00,21.8,19.9,00.0,30.9,23.5,15.1,0000.0,0003.32,0002.20,0001.93
2022-11-24 10:35:00,,0831.2,5.01,0.00,21.8,20.2,00.0,30.8,23.6,15.1,0000.0,0003.28,0002.23,0001.98
2022-11-24 10:36:00,,0831.2,5.00,0.00,21.8,21.1,00.0,30.8,23.8,15.1,0000.0,0003.31,0002.27,0002.00
2022-11-24 10:37:00,,0831.2,5.00,0.00,22.0,21.9,00.0,30.8,24.0,15.0,0000.0,0003.44,0002.34,0002.03
2022-11-24 10:38:00,,0831.2,5.00,0.00,22.0,21.8,00.0,30.8,24.0,15.0,0000.0,0003.41,0002.38,0002.06
2022-11-24 10:39:00,,0831.2,4.99,0.00,22.0,21.5,00.0,30.9,24.0,15.0,0000.0,0003.32,0002.35,0002.06
2022-11-24 10:40:00,,0831.2,4.99,0.00,22.0,21.3,00.0,30.9,23.9,15.0,0000.0,0003.34,0002.34,0002.04
2022-11-24 10:41:00,,0831.2,5.01,0.00,22.0,21.1,00.0,30.9,23.9,15.0,0000.0,0003.35,0002.33,0002.03
2022-11-24 10:42:00,,0831.2,5.00,0.00,22.0,21.0,00.0,30.9,23.9,15.0,0000.0,0003.40,0002.35,0002.03
2022-11-24 10:43:00,,0831.2,4.98,0.00,22.0,20.9,00.0,30.9,23.9,14.9,0000.0,0003.24,0002.34,0002.05
2022-11-24 10:44:00,,0831.2,5.01,0.00,22.0,20.8,00.0,30.9,23.9,14.9,0000.0,0003.11,0002.30,0002.04
2022-11-24 10:45:00,,0831.3,5.00,0.00,22.0,20.7,00.0,30.9,23.9,14.9,0000.0,0003.17,0002.32,0002.06
2022-11-24 10:46:00,,0831.4,5.01,0.00,22.0,20.7,00.0,30.9,23.9,14.9,0000.0,0003.22,0002.35,0002.07
2022-11-24 10:47:00,,0831.4,5.01,0.00,22.0,20.7,00.0,30.9,23.9,14.8,0000.0,0003.25,0002.36,0002.07
2022-11-24 10:48:00,,0831.4,4.98,0.00,22.0,20.7,00.0,30.9,23.9,14.7,0000.0,0003.21,0002.34,0002.07
2022-11-24 10:49:00,,0831.4,5.00,0.00,22.0,20.7,00.0,30.9,23.9,14.6,0000.0,0003.14,0002.31,0002.07
2022-11-24 10:50:00,,0831.5,5.00,0.00,22.0,20.6,00.0,30.9,23.8,14.6,0000.0,0003.24,0002.35,0002.09
2022-11-24 10:51:00,,0831.5,5.00,0.00,22.0,20.6,00.0,30.9,23.8,14.5,0000.0,0003.29,0002.40,0002.12
2022-11-24 10:52:00,,0831.4,5.00,0.00,22.0,20.6,00.0,30.9,23.8,14.5,0000.0,0003.44,0002.47,0002.17
2022-11-24 10:53:00,,0831.4,5.00,0.00,22.0,20.5,00.0,30.9,23.7,14.5,0000.0,0003.46,0002.50,0002.21
2022-11-24 10:54:00,,0831.4,4.99,0.00,21.9,20.5,00.0,30.9,23.7,14.6,0000.0,0003.47,0002.53,0002.24
2022-11-24 10:55:00,,0831.5,5.00,0.00,21.9,20.5,00.0,30.9,23.8,14.6,0000.0,0003.55,0002.59,0002.30
2022-11-24 10:56:00,,0831.5,5.00,0.00,21.9,20.5,00.0,30.9,23.8,14.6,0000.0,0003.90,0002.62,0002.33
2022-11-24 10:57:00,,0831.5,5.00,0.00,21.9,20.5,00.0,30.9,23.8,14.6,0000.0,0004.48,0002.63,0002.34
2022-11-24 10:58:00,,0831.4,5.00,0.00,21.9,20.5,00.0,30.9,23.8,14.6,0000.0,0005.21,0002.61,0002.35
2022-11-24 10:59:00,,0831.4,5.01,0.00,21.9,20.5,00.0,30.9,23.8,14.6,0000.0,0005.42,0002.62,0002.34
